TimeCST,TemperatureF,Dew PointF,Humidity,Sea Level PressureIn,VisibilityMPH,Wind Direction,Wind SpeedMPH,Gust SpeedMPH,PrecipitationIn,Events,Conditions,WindDirDegrees,DateUTC
12:54 AM,39.0,18.0,43,29.94,10.0,NW,11.5,-,N/A,,Overcast,310,2014-01-14 06:54:00
1:54 AM,44.1,19.0,37,29.94,10.0,North,23.0,29.9,N/A,,Overcast,350,2014-01-14 07:54:00
2:54 AM,46.9,23.0,39,29.97,10.0,NW,20.7,27.6,N/A,,Mostly Cloudy,320,2014-01-14 08:54:00
3:54 AM,46.0,28.9,51,30.00,10.0,NNW,20.7,27.6,0.00,,Overcast,330,2014-01-14 09:54:00
4:54 AM,44.1,28.0,53,30.00,10.0,NW,8.1,-,N/A,,Overcast,310,2014-01-14 10:54:00
5:54 AM,41.0,27.0,57,30.05,10.0,NNW,13.8,-,N/A,,Mostly Cloudy,340,2014-01-14 11:54:00
6:54 AM,39.9,28.0,63,30.13,10.0,North,23.0,28.8,N/A,,Partly Cloudy,360,2014-01-14 12:54:00
7:54 AM,35.1,23.0,61,30.18,10.0,North,12.7,-,N/A,,Partly Cloudy,10,2014-01-14 13:54:00
8:54 AM,37.0,21.9,54,30.24,10.0,North,16.1,-,N/A,,Overcast,350,2014-01-14 14:54:00
9:54 AM,39.9,21.9,49,30.29,10.0,North,26.5,31.1,N/A,,Mostly Cloudy,350,2014-01-14 15:54:00
10:54 AM,39.9,21.9,49,30.32,10.0,North,21.9,29.9,N/A,,Mostly Cloudy,350,2014-01-14 16:54:00
11:54 AM,39.9,24.1,53,30.31,10.0,North,21.9,-,N/A,,Mostly Cloudy,350,2014-01-14 17:54:00
12:54 PM,41.0,23.0,49,30.32,10.0,NNW,23.0,-,N/A,,Mostly Cloudy,330,2014-01-14 18:54:00
1:54 PM,42.1,19.9,41,30.30,10.0,NNW,21.9,27.6,N/A,,Mostly Cloudy,340,2014-01-14 19:54:00
2:54 PM,41.0,17.1,38,30.30,10.0,NNW,24.2,32.2,N/A,,Mostly Cloudy,340,2014-01-14 20:54:00
3:54 PM,42.1,12.9,31,30.30,10.0,NNW,26.5,36.8,N/A,,Clear,340,2014-01-14 21:54:00
4:54 PM,41.0,10.9,29,30.33,10.0,North,23.0,36.8,N/A,,Clear,350,2014-01-14 22:54:00
5:54 PM,34.0,21.9,61,30.38,10.0,North,15.0,-,N/A,,Partly Cloudy,360,2014-01-14 23:54:00
6:54 PM,32.0,21.0,64,30.39,10.0,North,10.4,-,N/A,,Scattered Clouds,360,2014-01-15 00:54:00
7:54 PM,33.1,19.9,59,30.41,10.0,NNW,9.2,-,N/A,,Overcast,340,2014-01-15 01:54:00
8:54 PM,27.0,19.0,72,30.42,10.0,NNW,6.9,-,N/A,,Overcast,340,2014-01-15 02:54:00
9:54 PM,27.0,19.9,75,30.40,10.0,WNW,8.1,-,N/A,,Overcast,300,2014-01-15 03:54:00
10:54 PM,28.0,19.9,72,30.39,10.0,West,5.8,-,N/A,,Overcast,260,2014-01-15 04:54:00
11:54 PM,28.0,19.9,72,30.40,10.0,WNW,8.1,-,N/A,,Overcast,290,2014-01-15 05:54:00